Showing default

COSMOS 2523, 42986

Orbit data source: Space-Track

COSMOS 2523, 42986 is a payload satellite owned by VVKO VKS (CIS) in SSO that was launched on Fri, 23 Jun 2017 UTC via a SOYUZ-2-1V launch vehicle from the Plesetsk Missile And Space Complex (PKMTR). Payload-class satellites include a variety of spacecraft equipped with specific instruments for various scientific and technological missions. These include communications satellites like Starlink; space stations such as the ISS; scientific satellites like the Hubble; Earth observation satellites from companies like Planet Labs, Umbra, and HawkEye 360; GPS; miniature CubeSats for education and research; and military/defense satellites.

Loading next visibility...
Identifier
42986, 2017-037E
Orbit
SSO
Country
Flag of CISCIS
Related business
Manufacturer
TSKHM?
Mission
Operational Defense Technology
Bus & Motor
NAPRAZHENIYE?, Unknown motor
Mass
~47 kg wet, ~47 kg dry
Launch date (UTC)
2017-06-23 (9 years ago)
Launch vehicle
SOYUZ-2-1V
Launch site
Plesetsk Missile And Space Complex (PKMTR)
Object type
Payload
Rocket body
Debris
Shape & HBR
Box, 0.2 m
Radar Cross Section
0.100 m², Medium (>0.1 m² and < 1m²)

Expand to show TLE details & history
Last TLE update: 3 hours ago

TLE from 3 hours ago
0 COSMOS 2523
1 42986U 17037E   26128.18597352  .00002004  00000-0  17901-3 0  9993
2 42986  97.5004 142.9957 0067174   5.7016 354.4954 14.95307635462983
Epoch: 2026-05-08T04:27Z
TLE epoch observation values (Epoch: 2026-05-08T04:27:48.112Z)
Latitude
-0.00008°
Longitude
-149.97614°
Altitude
537.931 km
Speed
7.619 km/s
True Right ascension
09h 31m 58s
True Declination
0° 00' 00"
Sunlit
Object was in daylight at epoch
Visualization orbit readout
Latitude
Unknown
Longitude
Unknown
Altitude
Unknown
Speed
Unknown
Apparent Right ascension
Unknown
Apparent Declination
Unknown
Sunlit
N/A
Visualization observer readout
Local Sidereal Time
15:59:06
Azimuth
Unknown
Elevation
Unknown
Doppler factor
Unknown
Orbital elements
Apogee altitude
625.151 km
Perigee altitude
531.691 km
Semi-major axis
6,956.558 km
Eccentricity
0.00672
Inclination
97.5004°
RAAN
142.9957°
Arg. of periapsis
5.7016°
True anomaly
354.42094°
Mean anomaly
354.4954°
Eccentric anomaly
354.45823°
Mean motion
3.74069 °/min
Orbital period
96.24 mins
BSTAR
0.00017901
Loading maneuver chart data...
Computing Atmospheric mass density...
Loading historical data...
Loading historical data...
Loading historical data...
Loading historical data...
Loading historical data...
Loading historical data...
Loading historical data...

Documentation

Showing up to 5 results
|